Tiempo cada hora 1-e Itkulovo

Hoy, 23 Octubre, Viernes

Tiempo Temperatura Precipitaciones Viento Presión Humedad
00:00 -7°C° 0 mm 5 mps 716 mmHg 84%
01:00 -7°C° 0 mm 5 mps 716 mmHg 84%
02:00 -7°C° 0 mm 4 mps 716 mmHg 85%
03:00 -7°C° 0 mm 4 mps 716 mmHg 86%
04:00 -7°C° 0 mm 4 mps 717 mmHg 85%
05:00 -7°C° 0 mm 4 mps 717 mmHg 85%
06:00 -7°C° 0 mm 4 mps 717 mmHg 85%
07:00 -8°C° 0 mm 4 mps 717 mmHg 85%
08:00 -7°C° 0 mm 4 mps 717 mmHg 79%
09:00 -5°C° 0 mm 4 mps 718 mmHg 72%
10:00 -4°C° 0 mm 4 mps 718 mmHg 65%
11:00 -3°C° 0 mm 4 mps 718 mmHg 64%
12:00 -3°C° 0 mm 4 mps 718 mmHg 62%
13:00 -3°C° 0 mm 4 mps 718 mmHg 60%
14:00 -3°C° 0 mm 4 mps 718 mmHg 61%
15:00 -2°C° 0 mm 3 mps 718 mmHg 62%
16:00 -2°C° 0 mm 3 mps 718 mmHg 63%
17:00 -1°C° 0 mm 4 mps 714 mmHg 90%
18:00 -2°C° 0 mm 3 mps 716 mmHg 83%
19:00 -4°C° 0 mm 2 mps 718 mmHg 76%
20:00 -4°C° 0 mm 2 mps 718 mmHg 75%
21:00 -4°C° 0 mm 3 mps 718 mmHg 74%
22:00 -4°C° 0 mm 3 mps 718 mmHg 73%
23:00 -4°C° 0.2 mm 4 mps 717 mmHg 80%

Mañana, 24 Octubre, Sábado

Tiempo Temperatura Precipitaciones Viento Presión Humedad
00:00 -4°C° 0.2 mm 4 mps 716 mmHg 87%
01:00 -5°C° 0.2 mm 5 mps 716 mmHg 94%
02:00 -4°C° 0.5 mm 5 mps 715 mmHg 95%
03:00 -4°C° 0.5 mm 5 mps 715 mmHg 96%
04:00 -4°C° 0.5 mm 5 mps 714 mmHg 96%
05:00 -2°C° 0.3 mm 5 mps 714 mmHg 96%
06:00 -1°C° 0.3 mm 5 mps 713 mmHg 97%
07:00 +1°C° 0.3 mm 5 mps 713 mmHg 97%
08:00 +1°C° 0.3 mm 5 mps 712 mmHg 97%
09:00 +1°C° 0.3 mm 6 mps 712 mmHg 96%
10:00 +2°C° 0.3 mm 6 mps 711 mmHg 96%
11:00 +2°C° 1.4 mm 6 mps 711 mmHg 96%
12:00 +2°C° 1.4 mm 6 mps 710 mmHg 96%
13:00 +3°C° 1.4 mm 6 mps 709 mmHg 96%
14:00 +3°C° 1.3 mm 6 mps 709 mmHg 96%
15:00 +3°C° 1.3 mm 6 mps 709 mmHg 96%
16:00 +5°C° 1.3 mm 5 mps 709 mmHg 95%
17:00 +4°C° 0.2 mm 6 mps 709 mmHg 95%
18:00 +4°C° 0.2 mm 6 mps 710 mmHg 95%
19:00 +4°C° 0.2 mm 6 mps 710 mmHg 94%
20:00 +5°C° 0.2 mm 5 mps 710 mmHg 95%
21:00 +5°C° 0.2 mm 4 mps 711 mmHg 95%
22:00 +5°C° 0.2 mm 4 mps 711 mmHg 96%
23:00 +5°C° 0 mm 4 mps 711 mmHg 96%

Pasado mañana, 25 Octubre, Domingo

Tiempo Temperatura Precipitaciones Viento Presión Humedad
00:00 +5°C° 0 mm 3 mps 712 mmHg 96%
01:00 +5°C° 0 mm 3 mps 712 mmHg 96%
02:00 +5°C° 0 mm 3 mps 712 mmHg 96%
03:00 +5°C° 0 mm 3 mps 712 mmHg 97%
04:00 +5°C° 0 mm 3 mps 712 mmHg 97%
05:00 +5°C° 0 mm 3 mps 712 mmHg 97%
06:00 +5°C° 0 mm 3 mps 712 mmHg 97%
07:00 +5°C° 0 mm 3 mps 713 mmHg 97%
08:00 +5°C° 0 mm 3 mps 713 mmHg 95%
09:00 +5°C° 0 mm 3 mps 713 mmHg 93%
10:00 +7°C° 0 mm 3 mps 713 mmHg 90%
11:00 +7°C° 0 mm 3 mps 713 mmHg 85%
12:00 +8°C° 0 mm 3 mps 713 mmHg 79%
13:00 +9°C° 0 mm 3 mps 713 mmHg 74%
14:00 +8°C° 0 mm 3 mps 712 mmHg 78%
15:00 +8°C° 0 mm 2 mps 712 mmHg 82%
16:00 +8°C° 0 mm 2 mps 712 mmHg 86%
17:00 +7°C° 0.1 mm 2 mps 711 mmHg 89%
18:00 +7°C° 0.1 mm 2 mps 711 mmHg 93%
19:00 +7°C° 0.1 mm 1 mps 710 mmHg 96%
20:00 +6°C° 1.3 mm 2 mps 710 mmHg 97%
21:00 +7°C° 1.3 mm 3 mps 709 mmHg 97%
22:00 +7°C° 1.3 mm 3 mps 708 mmHg 98%
23:00 +7°C° 1.1 mm 3 mps 707 mmHg 98%

, 26 Octubre, Lunes

Tiempo Temperatura Precipitaciones Viento Presión Humedad
00:00 +8°C° 1.1 mm 3 mps 706 mmHg 98%
01:00 +7°C° 1.1 mm 4 mps 705 mmHg 97%
02:00 +7°C° 1 mm 4 mps 704 mmHg 96%
03:00 +7°C° 1 mm 4 mps 704 mmHg 95%
04:00 +7°C° 1 mm 5 mps 703 mmHg 95%
05:00 +7°C° 0.6 mm 6 mps 703 mmHg 94%
06:00 +5°C° 0.6 mm 6 mps 703 mmHg 93%
07:00 +4°C° 0.6 mm 7 mps 702 mmHg 92%
08:00 +2°C° 0.5 mm 8 mps 703 mmHg 87%
09:00 +1°C° 0.5 mm 9 mps 703 mmHg 83%
10:00 -1°C° 0.5 mm 11 mps 704 mmHg 78%
11:00 0°C° 0 mm 10 mps 705 mmHg 79%
12:00 -2°C° 0 mm 10 mps 706 mmHg 79%
13:00 -1°C° 0 mm 9 mps 706 mmHg 79%
14:00 -3°C° 0 mm 9 mps 707 mmHg 79%
15:00 -3°C° 0 mm 9 mps 707 mmHg 79%
16:00 -2°C° 0 mm 8 mps 707 mmHg 79%
17:00 -4°C° 0 mm 8 mps 708 mmHg 79%
18:00 -4°C° 0 mm 8 mps 708 mmHg 80%
19:00 -5°C° 0 mm 8 mps 708 mmHg 80%
20:00 -5°C° 0.3 mm 9 mps 708 mmHg 83%
21:00 -5°C° 0.3 mm 9 mps 708 mmHg 87%
22:00 -4°C° 0.3 mm 9 mps 708 mmHg 91%
23:00 -4°C° 1.2 mm 9 mps 708 mmHg 91%

26 Octubre, Lunes

Tiempo Temperatura Precipitaciones Viento Presión Humedad
00:00 +8°C° 1.1 mm 3 mps 706 mmHg 98%
01:00 +7°C° 1.1 mm 4 mps 705 mmHg 97%
02:00 +7°C° 1 mm 4 mps 704 mmHg 96%
03:00 +7°C° 1 mm 4 mps 704 mmHg 95%
04:00 +7°C° 1 mm 5 mps 703 mmHg 95%
05:00 +7°C° 0.6 mm 6 mps 703 mmHg 94%
06:00 +5°C° 0.6 mm 6 mps 703 mmHg 93%
07:00 +4°C° 0.6 mm 7 mps 702 mmHg 92%
08:00 +2°C° 0.5 mm 8 mps 703 mmHg 87%
09:00 +1°C° 0.5 mm 9 mps 703 mmHg 83%
10:00 -1°C° 0.5 mm 11 mps 704 mmHg 78%
11:00 0°C° 0 mm 10 mps 705 mmHg 79%
12:00 -2°C° 0 mm 10 mps 706 mmHg 79%
13:00 -1°C° 0 mm 9 mps 706 mmHg 79%
14:00 -3°C° 0 mm 9 mps 707 mmHg 79%
15:00 -3°C° 0 mm 9 mps 707 mmHg 79%
16:00 -2°C° 0 mm 8 mps 707 mmHg 79%
17:00 -4°C° 0 mm 8 mps 708 mmHg 79%
18:00 -4°C° 0 mm 8 mps 708 mmHg 80%
19:00 -5°C° 0 mm 8 mps 708 mmHg 80%
20:00 -5°C° 0.3 mm 9 mps 708 mmHg 83%
21:00 -5°C° 0.3 mm 9 mps 708 mmHg 87%
22:00 -4°C° 0.3 mm 9 mps 708 mmHg 91%
23:00 -4°C° 1.2 mm 9 mps 708 mmHg 91%

27 Octubre, Martes

Tiempo Temperatura Precipitaciones Viento Presión Humedad
00:00 -4°C° 1.2 mm 9 mps 709 mmHg 92%
01:00 -4°C° 1.2 mm 9 mps 709 mmHg 92%
02:00 -4°C° 0.2 mm 9 mps 710 mmHg 89%
03:00 -4°C° 0.2 mm 9 mps 710 mmHg 85%
04:00 -4°C° 0.2 mm 9 mps 711 mmHg 81%
05:00 -5°C° 0 mm 8 mps 712 mmHg 82%
06:00 -5°C° 0 mm 8 mps 713 mmHg 82%
07:00 -6°C° 0 mm 7 mps 714 mmHg 83%
08:00 -4°C° 0 mm 7 mps 715 mmHg 82%
09:00 -4°C° 0 mm 7 mps 716 mmHg 80%
10:00 -3°C° 0 mm 7 mps 716 mmHg 79%
11:00 -2°C° 0 mm 6 mps 717 mmHg 79%
12:00 -2°C° 0 mm 6 mps 718 mmHg 79%
13:00 -1°C° 0 mm 6 mps 718 mmHg 79%
14:00 -1°C° 0 mm 5 mps 719 mmHg 80%
15:00 -1°C° 0 mm 5 mps 719 mmHg 81%
16:00 -2°C° 0 mm 5 mps 720 mmHg 83%
17:00 -4°C° 0 mm 5 mps 720 mmHg 85%
18:00 -4°C° 0 mm 5 mps 721 mmHg 87%
19:00 -5°C° 0 mm 5 mps 722 mmHg 89%
20:00 -4°C° 0 mm 4 mps 722 mmHg 89%
21:00 -5°C° 0 mm 3 mps 722 mmHg 90%
22:00 -4°C° 0 mm 2 mps 722 mmHg 91%
23:00 -4°C° 0 mm 2 mps 723 mmHg 90%

28 Octubre, Miércoles

Tiempo Temperatura Precipitaciones Viento Presión Humedad
00:00 -4°C° 0 mm 2 mps 723 mmHg 90%
01:00 -4°C° 0 mm 2 mps 723 mmHg 89%
02:00 -4°C° 0 mm 2 mps 723 mmHg 88%
03:00 -4°C° 0 mm 2 mps 724 mmHg 88%
04:00 -4°C° 0 mm 2 mps 724 mmHg 87%
05:00 -4°C° 0 mm 2 mps 724 mmHg 85%
06:00 -5°C° 0 mm 3 mps 725 mmHg 83%
07:00 -5°C° 0 mm 3 mps 725 mmHg 82%
08:00 -2°C° 0 mm 3 mps 725 mmHg 77%
09:00 -2°C° 0 mm 4 mps 725 mmHg 73%
10:00 -1°C° 0 mm 4 mps 725 mmHg 68%
11:00 0°C° 0 mm 4 mps 726 mmHg 66%
12:00 +1°C° 0 mm 4 mps 726 mmHg 65%
13:00 +3°C° 0 mm 4 mps 726 mmHg 63%
14:00 +2°C° 0 mm 3 mps 726 mmHg 67%
15:00 +2°C° 0 mm 3 mps 726 mmHg 70%
16:00 +1°C° 0 mm 3 mps 725 mmHg 74%
17:00 0°C° 0 mm 3 mps 726 mmHg 75%
18:00 -1°C° 0 mm 3 mps 726 mmHg 76%
19:00 -2°C° 0 mm 3 mps 726 mmHg 77%
20:00 -1°C° 0 mm 3 mps 726 mmHg 76%
21:00 -1°C° 0 mm 3 mps 726 mmHg 76%
22:00 -2°C° 0 mm 4 mps 726 mmHg 75%
23:00 -2°C° 0 mm 4 mps 726 mmHg 75%
Mostrar más

Necesitamos Su Consentimiento

Meteoprog y nuestros Proveedores de Servicios pueden almacenar y acceder a sus datos personales como cookies, identificadores de dispositivo u otras tecnologías similares de su dispositivo y procesar dichos datos para personalizar contenido y anuncios, además de ofrecer funciones de redes sociales y analizar el tráfico.

  • Almacenar y/o acceder a información en su dispositivo

    Se puede almacenar o acceder a cookies, identificadores de dispositivo u otra información de su dispositivo para los fines anteriormente indicados.

  • Anuncios y contenido personalizados, medición de anuncios y contenido, percepciones del público, y desarrollo de productos

    Los anuncios y el contenido pueden personalizarse en base a su perfil. Se pueden añadir más datos para personalizar mejor los anuncios y contenidos. Se puede medir el rendimiento de los anuncios y contenidos. Se puede obtener la percepción sobre el público que ha visto los anuncios y contenidos. Dichos datos pueden usarse para desarrollar o mejorar la experiencia del usuario, sistemas y software.

Al hacer clic en ‘Estoy De Acuerdo’ usted permitirá el uso de las cookies, identificadores de dispositivo, balizas web u otras tecnologías similares indicadas. Su configuración puede cambiarse desde el navegador de su dispositivo.

Para ciertos fines, los intereses legítimos pueden ser considerados por encima del consentimiento. Puede leer más sobre ello en nuestra Política de Privacidad y Cookies.